• In France
  • List of Countries
  • For 7 days
  • Water Temperature
  • Satellite Maps
  • Weather Map
  • Weather Widgets
  • user-avatar
    Login

    Hourly Weather Neuquén

    Today, 20 September, Thursday

    Time Temperature Precipitation Wind Pressure Humidity
    00:00 +12°C° 0.2 mm 3 mps 731 mmHg 54%
    01:00 +12°C° 0.2 mm 3 mps 731 mmHg 55%
    02:00 +12°C° 0 mm 4 mps 731 mmHg 54%
    03:00 +12°C° 0 mm 4 mps 730 mmHg 53%
    04:00 +12°C° 0 mm 4 mps 730 mmHg 52%
    05:00 +12°C° 0 mm 5 mps 730 mmHg 49%
    06:00 +13°C° 0 mm 5 mps 730 mmHg 46%
    07:00 +14°C° 0 mm 5 mps 730 mmHg 43%
    08:00 +15°C° 0 mm 7 mps 730 mmHg 39%
    09:00 +17°C° 0 mm 8 mps 729 mmHg 35%
    10:00 +19°C° 0 mm 10 mps 729 mmHg 31%
    11:00 +21°C° 0 mm 10 mps 729 mmHg 30%
    12:00 +22°C° 0 mm 10 mps 728 mmHg 29%
    13:00 +22°C° 0 mm 11 mps 728 mmHg 28%
    14:00 +22°C° 0 mm 10 mps 728 mmHg 29%
    15:00 +22°C° 0 mm 9 mps 728 mmHg 30%
    16:00 +22°C° 0 mm 8 mps 728 mmHg 32%
    17:00 +20°C° 0 mm 8 mps 728 mmHg 33%
    18:00 +18°C° 0 mm 8 mps 728 mmHg 35%
    19:00 +17°C° 0 mm 8 mps 729 mmHg 36%
    20:00 +17°C° 0 mm 7 mps 729 mmHg 37%
    21:00 +16°C° 0 mm 6 mps 729 mmHg 39%
    22:00 +16°C° 0 mm 6 mps 729 mmHg 40%
    23:00 +15°C° 0 mm 6 mps 729 mmHg 41%

    Tomorrow, 21 September, Friday

    Time Temperature Precipitation Wind Pressure Humidity
    00:00 +15°C° 0 mm 6 mps 729 mmHg 43%
    01:00 +15°C° 0 mm 6 mps 729 mmHg 44%
    02:00 +15°C° 0 mm 5 mps 729 mmHg 45%
    03:00 +15°C° 0 mm 5 mps 729 mmHg 46%
    04:00 +14°C° 0 mm 4 mps 728 mmHg 46%
    05:00 +15°C° 0 mm 4 mps 729 mmHg 45%
    06:00 +15°C° 0 mm 4 mps 729 mmHg 45%
    07:00 +17°C° 0 mm 4 mps 729 mmHg 44%
    08:00 +19°C° 0 mm 6 mps 729 mmHg 39%
    09:00 +21°C° 0 mm 7 mps 729 mmHg 34%
    10:00 +23°C° 0 mm 9 mps 729 mmHg 29%
    11:00 +24°C° 0 mm 10 mps 728 mmHg 26%
    12:00 +26°C° 0 mm 11 mps 727 mmHg 23%
    13:00 +27°C° 0 mm 12 mps 726 mmHg 20%
    14:00 +27°C° 0 mm 12 mps 725 mmHg 19%
    15:00 +27°C° 0 mm 11 mps 724 mmHg 19%
    16:00 +27°C° 0 mm 11 mps 724 mmHg 18%
    17:00 +26°C° 0 mm 10 mps 724 mmHg 21%
    18:00 +23°C° 0 mm 8 mps 724 mmHg 25%
    19:00 +22°C° 0 mm 7 mps 724 mmHg 28%
    20:00 +21°C° 0 mm 8 mps 724 mmHg 32%
    21:00 +20°C° 0 mm 8 mps 724 mmHg 36%
    22:00 +18°C° 0 mm 9 mps 724 mmHg 40%
    23:00 +18°C° 0 mm 9 mps 724 mmHg 40%

    Day after tomorrow, 22 September, Saturday

    Time Temperature Precipitation Wind Pressure Humidity
    00:00 +17°C° 0 mm 10 mps 724 mmHg 41%
    01:00 +17°C° 0 mm 10 mps 724 mmHg 41%
    02:00 +16°C° 0 mm 10 mps 725 mmHg 43%
    03:00 +14°C° 0 mm 10 mps 725 mmHg 46%
    04:00 +13°C° 0 mm 10 mps 725 mmHg 48%
    05:00 +13°C° 0 mm 11 mps 726 mmHg 44%
    06:00 +13°C° 0 mm 13 mps 727 mmHg 40%
    07:00 +14°C° 0 mm 14 mps 727 mmHg 35%
    08:00 +15°C° 0 mm 15 mps 727 mmHg 32%
    09:00 +17°C° 0 mm 15 mps 728 mmHg 28%
    10:00 +19°C° 0 mm 16 mps 728 mmHg 24%
    11:00 +19°C° 0 mm 16 mps 728 mmHg 23%
    12:00 +20°C° 0 mm 16 mps 727 mmHg 21%
    13:00 +20°C° 0 mm 16 mps 727 mmHg 20%
    14:00 +20°C° 0 mm 15 mps 727 mmHg 21%
    15:00 +20°C° 0 mm 15 mps 727 mmHg 21%
    16:00 +20°C° 0 mm 15 mps 727 mmHg 22%
    17:00 +18°C° 0 mm 13 mps 728 mmHg 25%
    18:00 +17°C° 0 mm 12 mps 729 mmHg 28%
    19:00 +16°C° 0 mm 10 mps 730 mmHg 31%
    20:00 +15°C° 0 mm 9 mps 730 mmHg 34%
    21:00 +13°C° 0 mm 9 mps 730 mmHg 37%
    22:00 +12°C° 0 mm 9 mps 731 mmHg 40%
    23:00 +11°C° 0 mm 7 mps 731 mmHg 43%

    23 September, Sunday

    Time Temperature Precipitation Wind Pressure Humidity
    00:00 +12°C° 0 mm 5 mps 731 mmHg 45%
    01:00 +11°C° 0 mm 4 mps 732 mmHg 48%
    02:00 +11°C° 0 mm 4 mps 732 mmHg 49%
    03:00 +10°C° 0 mm 4 mps 732 mmHg 50%
    04:00 +10°C° 0 mm 4 mps 733 mmHg 51%
    05:00 +11°C° 0 mm 4 mps 733 mmHg 49%
    06:00 +11°C° 0 mm 4 mps 734 mmHg 48%
    07:00 +12°C° 0 mm 4 mps 735 mmHg 46%
    08:00 +13°C° 0 mm 6 mps 735 mmHg 40%
    09:00 +15°C° 0 mm 7 mps 735 mmHg 34%
    10:00 +16°C° 0 mm 9 mps 735 mmHg 28%
    11:00 +17°C° 0 mm 9 mps 735 mmHg 25%
    12:00 +17°C° 0 mm 9 mps 735 mmHg 23%
    13:00 +18°C° 0 mm 9 mps 735 mmHg 20%
    14:00 +18°C° 0 mm 8 mps 735 mmHg 20%
    15:00 +18°C° 0 mm 8 mps 735 mmHg 20%
    16:00 +18°C° 0 mm 8 mps 735 mmHg 20%
    17:00 +16°C° 0 mm 8 mps 735 mmHg 24%
    18:00 +15°C° 0 mm 7 mps 736 mmHg 28%
    19:00 +14°C° 0 mm 7 mps 736 mmHg 33%
    20:00 +13°C° 0 mm 6 mps 737 mmHg 36%
    21:00 +11°C° 0 mm 6 mps 737 mmHg 39%
    22:00 +11°C° 0 mm 6 mps 738 mmHg 42%
    23:00 +10°C° 0 mm 5 mps 738 mmHg 43%

    24 September, Monday

    Time Temperature Precipitation Wind Pressure Humidity
    00:00 +11°C° 0 mm 4 mps 738 mmHg 45%
    01:00 +10°C° 0 mm 3 mps 738 mmHg 46%
    02:00 +10°C° 0 mm 3 mps 738 mmHg 46%
    03:00 +9°C° 0 mm 2 mps 738 mmHg 46%
    04:00 +9°C° 0 mm 2 mps 738 mmHg 46%
    05:00 +9°C° 0 mm 2 mps 739 mmHg 44%
    06:00 +10°C° 0 mm 3 mps 739 mmHg 42%
    07:00 +11°C° 0 mm 4 mps 739 mmHg 40%
    08:00 +12°C° 0 mm 4 mps 739 mmHg 36%
    09:00 +14°C° 0 mm 5 mps 738 mmHg 32%
    10:00 +15°C° 0 mm 6 mps 738 mmHg 28%
    11:00 +17°C° 0 mm 6 mps 737 mmHg 27%
    12:00 +19°C° 0 mm 6 mps 736 mmHg 26%
    13:00 +20°C° 0 mm 6 mps 735 mmHg 25%
    14:00 +21°C° 0 mm 6 mps 735 mmHg 25%
    15:00 +22°C° 0 mm 6 mps 734 mmHg 25%
    16:00 +22°C° 0 mm 6 mps 733 mmHg 26%
    17:00 +21°C° 0 mm 6 mps 733 mmHg 28%
    18:00 +20°C° 0 mm 5 mps 733 mmHg 31%
    19:00 +19°C° 0 mm 5 mps 733 mmHg 34%
    20:00 +19°C° 0 mm 6 mps 733 mmHg 35%
    21:00 +19°C° 0 mm 6 mps 732 mmHg 36%
    22:00 +17°C° 0 mm 6 mps 732 mmHg 37%
    23:00 +17°C° 0 mm 6 mps 731 mmHg 39%

    25 September, Tuesday

    Time Temperature Precipitation Wind Pressure Humidity
    00:00 +16°C° 0 mm 7 mps 731 mmHg 40%
    01:00 +16°C° 0 mm 7 mps 730 mmHg 42%
    02:00 +16°C° 0 mm 7 mps 730 mmHg 44%
    03:00 +16°C° 0 mm 6 mps 729 mmHg 46%
    04:00 +15°C° 0 mm 6 mps 729 mmHg 48%
    05:00 +16°C° 0 mm 6 mps 729 mmHg 49%
    06:00 +16°C° 0 mm 6 mps 729 mmHg 50%
    07:00 +16°C° 0 mm 6 mps 729 mmHg 51%
    08:00 +19°C° 0 mm 5 mps 729 mmHg 48%
    09:00 +20°C° 0 mm 5 mps 729 mmHg 45%
    10:00 +21°C° 0 mm 4 mps 729 mmHg 42%
    11:00 +22°C° 0 mm 4 mps 728 mmHg 38%
    12:00 +24°C° 0 mm 3 mps 727 mmHg 34%
    13:00 +25°C° 0 mm 2 mps 727 mmHg 30%
    14:00 +25°C° 0 mm 3 mps 726 mmHg 28%
    15:00 +25°C° 0 mm 3 mps 726 mmHg 27%
    16:00 +25°C° 0 mm 3 mps 726 mmHg 25%
    17:00 +24°C° 0 mm 3 mps 725 mmHg 28%
    18:00 +23°C° 0 mm 2 mps 725 mmHg 31%
    19:00 +21°C° 0 mm 2 mps 725 mmHg 34%
    20:00 +21°C° 0 mm 3 mps 725 mmHg 40%
    21:00 +20°C° 0 mm 4 mps 725 mmHg 46%
    22:00 +20°C° 0 mm 5 mps 724 mmHg 52%
    23:00 +19°C° 0.1 mm 5 mps 724 mmHg 53%
    Show more